THOR ABLESTAR DEB, 530

Orbit data source: Space-Track

THOR ABLESTAR DEB, 530 is space debris in LEO originally from a launch on Thu, 29 Jun 1961 UTC launched from the Air Force Eastern Test Range (AFETR). Debris objects in space refer to the collection of defunct objects orbiting the Earth. Examples of debris include non-operational satellites, rocket bodies, and fragments generated from explosions, collisions, or faulty payload assembly.

Loading next visibility...
THOR ABLESTAR DEB details
Identifier
530, 1961-015FU
Orbit
LEO
Last TLE update15 hours ago
Origin
Flag of USUSAF SSD (US)
ManufacturerUnknown
MissionSpacecraft
Bus & MotorUnknown
MassUnknown
Launch date (UTC)
1961-06-29 (64 years ago)
Launch vehicleUnknown
Launch site
Air Force Eastern Test Range (AFETR)
Object type
Payload
Rocket body
Debris
Shape & HBRUnknown
Radar Cross SectionSmall (<0.1 m²)

Expand to show TLE details & history

TLE from 15 hours ago
0 THOR ABLESTAR DEB
1 00530U 61015FU  25014.86562428  .00000345  00000-0  28379-3 0  9998
2 00530  66.8785 166.7811 0080081 188.2173 171.7606 13.99132488235104
Epoch: 2025-01-14T20:46Z
Definitive object data (Epoch: 2025-01-14T20:46:29.937Z)
Latitude0.00001°
Longitude100.59018°
Altitude956.564 km
Speed7.345 km/s
True Right ascension11h 07m 07s
True Declination0° 00' 00"
Sunlit
Object was in full shadow at TLE epoch
Visualization TLE readout
Latitude-0.50113°
Longitude-80.69627°
Altitude841.162 km
Speed7.462 km/s
Apparent Right ascension23h 26m 07s
Apparent Declination-18° 58' 48"
Sunlit
Object is in daylight
Visualization observer readout
Local Sidereal Time12:01:48
Azimuth22.726° NE
Elevation-67.7°
Doppler factor1
Orbital elements
Apogee altitude953.424 km
Perigee altitude836.933 km
Semi-major axis7,273.316 km
Eccentricity0.0080081
Inclination66.8785°
RAAN166.7811°
Arg. of periapsis188.2173°
True anomaly171.89082°
Mean anomaly171.7606°
Eccentric anomaly171.82584°
Mean motion3.499 °/min
BSTAR0.00028379
Orbital period102.89 mins
Loading maneuver chart data...

THOR ABLESTAR DEB Visibility forecast

Observer location: undefined°, undefined

Span
Click to sort rows by Start time (UTC) header in descending order
Start Az.
Max El. time (UTC)
Max El. Az.
Max El.
End time (UTC)
End Az.
11 mins2025-01-15 12:21:36.954Z234.674° WSW2025-01-15 12:26:36.954Z294.86° NW35.291°2025-01-15 12:32:36.954Z17.171° NNE
8 mins2025-01-15 19:37:36.954Z357.637° N2025-01-15 19:41:36.954Z51.426° ENE25.273°2025-01-15 19:45:36.954Z102.902° ESE
9 mins2025-01-15 21:23:36.954Z312.905° NW2025-01-15 21:27:36.954Z242.618° WSW36.054°2025-01-15 21:32:36.954Z176.615° S
9 mins2025-01-16 10:38:36.954Z170.037° S2025-01-16 10:42:36.954Z114.637° SE32.482°2025-01-16 10:47:36.954Z47.226° ENE
|